Location: Colonia Mina de C?rbuni
(46.1667°N, 22.7167°E)
Time: 02:21:07
(UTC+00:00)

Courier 1B - All Passes

Search period start: 22 April 2024 00:00
Search period end: 02 May 2024 00:00
Orbit: 962 x 1208 km, 28.3° (Epoch: 21 April)

Date Brightness Start Highest point End Pass type
(mag) Time Alt. Az. Time Alt. Az. Time Alt. Az.
22 Apr - 00:58:18 10° SW 01:02:52 18° S 01:07:17 10° SE visible
22 Apr - 02:51:52 10° SW 02:55:43 15° SSW 02:59:28 10° SSE visible
23 Apr - 00:04:46 10° SSW 00:09:16 17° S 00:13:39 10° SE visible
23 Apr - 01:57:46 10° SW 02:02:11 17° S 02:06:27 10° SSE visible
23 Apr - 23:11:23 10° SSW 23:15:39 16° SSE 23:19:49 10° SE visible
24 Apr - 01:03:50 10° SW 01:08:35 18° S 01:13:12 10° SE visible
24 Apr - 02:58:41 10° SW 03:01:24 12° SSW 03:04:01 10° S visible
24 Apr - 22:18:17 10° SSW 22:22:03 14° SSE 22:25:44 10° SE night (unlit)
25 Apr - 00:10:01 10° SW 00:14:59 19° S 00:19:47 10° SE visible
25 Apr - 02:04:04 10° SW 02:07:51 15° SSW 02:11:33 10° SSE visible
25 Apr - 21:25:38 10° S 21:28:26 12° SSE 21:31:11 10° SE night (unlit)
25 Apr - 23:16:22 10° SW 23:21:20 19° S 23:26:12 10° SE visible
26 Apr - 01:09:48 10° SW 01:14:17 17° S 01:18:39 10° SSE visible
26 Apr - 22:22:51 10° SSW 22:27:41 18° S 22:32:26 10° SE night (unlit)
27 Apr - 00:15:44 10° SW 00:20:41 19° S 00:25:28 10° SE visible
27 Apr - 02:11:25 10° SW 02:13:28 11° SSW 02:15:29 10° S visible
27 Apr - 21:29:33 10° SSW 21:34:03 16° SSE 21:38:29 10° SE night (unlit)
27 Apr - 23:21:51 10° SW 23:27:02 20° S 23:32:06 10° SE visible
28 Apr - 01:16:20 10° SW 01:19:56 14° SSW 01:23:26 10° SSE visible
28 Apr - 20:36:33 10° SSW 20:40:24 14° SSE 20:44:13 10° SE night (unlit)
28 Apr - 22:28:05 10° SW 22:33:22 20° S 22:38:33 10° SE night (unlit)
29 Apr - 00:21:54 10° SW 00:26:20 16° SSW 00:30:40 10° SSE visible
29 Apr - 19:44:08 10° S 19:46:46 12° SSE 19:49:25 10° SE visible
29 Apr - 21:34:31 10° SW 21:39:42 19° S 21:44:49 10° SE night (unlit)
29 Apr - 23:27:45 10° SW 23:32:42 18° S 23:37:35 10° SSE night (unlit)
30 Apr - 20:41:06 10° SSW 20:46:01 18° S 20:50:55 10° SE visible
30 Apr - 22:33:47 10° SW 22:39:02 20° S 22:44:14 10° SE night (unlit)
01 May - 00:28:50 10° SW 00:31:57 13° SSW 00:35:01 10° S visible
01 May - 19:47:57 10° SSW 19:52:22 16° SSE 19:56:47 10° SE visible
01 May - 21:40:00 10° SW 21:45:22 20° S 21:50:42 10° SE visible
01 May - 23:34:09 10° SW 23:38:20 15° SSW 23:42:27 10° SSE night (unlit)
